Augusto C. Sandino (Managua) International Airport
MNMG : now visible

Airfield :











YOU CAN JOIN US ON...

 
LOGIN :

Register | Disclaimer

   EN    FR    IT 

 









Legend :    VFR   Marginal VFR   IFR   Intensive IFR   Very Intensive IFR
Visi :
Ceiling :
>= 8 km
>= 3000ft
5 to 8 km
1000 to 3000 ft
1500m to 5 km
500 to 1000 ft
800 to 1500m
200 to 500 ft
< 800m
< 200 ft
Symbols :   Thunderstorms  Fog  Heavy snow  Heavy precipitations  Wind > 20 kt






- Airport Elevation : 194 ft
- IATA code : MGA


MNMG - Augusto C. Sandino (Managua) International

CURRENT METAR :
  • 062200Z 10012KT 9999 FEW024 35/18 Q1008 A2979 NOSIG

EXPIRED METARs :
  • 062100Z 10014KT 9999 FEW024 36/18 Q1008 A2979 1CI300 NOSIG
  • 062000Z 12016KT 9999 FEW024 35/18 Q1009 A2980 NOSIG

TAF TAF MNMG
Valid from the 06 at 18:00 until the 07 at 18:00 UTC


061518Z 0618/0718 07010G22KT 9999 FEW025
FM070200 10008KT
TEMPO 0715/0719 07016G26KT



MET'MAP, your aeronautical weather chart ! - Copyright ORBIFLY December 2007 - Disclaimer

ORBIFLY MET'MAP TEAM :

Programming & Development : Alexandra Zaïnal
Concept & original design : Baudouin d'Aumeries
Assistance for programming : Marc-Olivier Méhu
Technical & hardware support : Manuel Goepfert

Contact : metmap@orbifly.com




SOURCES & CREDITS :

   NOAA       Earth
Advisory